When you browse on this site, cookies collect data to enhance your experience and personalize the content and advertising you see.
Visit our Privacy Policy to learn more. By continuing to use the site, you agree to this use of cookies and data.
  • In Netherlands
  • List of Countries
  • For 7 days
  • Water Temperature
  • Weather Map
  • Weather Widgets
  • user-avatar
    Login

    Hourly Weather Kyrdzhali

    Today, 22 August, Thursday

    Time Temperature Precipitation Wind Pressure Humidity
    00:00 +23°C° 0 mm 1 mps 729 mmHg 61%
    01:00 +23°C° 0 mm 2 mps 729 mmHg 61%
    02:00 +23°C° 0 mm 2 mps 729 mmHg 61%
    03:00 +21°C° 0 mm 2 mps 729 mmHg 62%
    04:00 +21°C° 0 mm 2 mps 729 mmHg 62%
    05:00 +21°C° 0 mm 2 mps 729 mmHg 63%
    06:00 +24°C° 0 mm 2 mps 729 mmHg 56%
    07:00 +26°C° 0 mm 3 mps 730 mmHg 49%
    08:00 +28°C° 0 mm 3 mps 730 mmHg 42%
    09:00 +30°C° 0 mm 4 mps 730 mmHg 38%
    10:00 +32°C° 0 mm 5 mps 730 mmHg 33%
    11:00 +34°C° 0 mm 6 mps 730 mmHg 29%
    12:00 +35°C° 0 mm 6 mps 730 mmHg 28%
    13:00 +35°C° 0 mm 6 mps 730 mmHg 27%
    14:00 +36°C° 0 mm 7 mps 730 mmHg 26%
    15:00 +36°C° 0 mm 6 mps 729 mmHg 27%
    16:00 +35°C° 0 mm 6 mps 729 mmHg 28%
    17:00 +35°C° 0 mm 6 mps 729 mmHg 29%
    18:00 +32°C° 0 mm 5 mps 729 mmHg 33%
    19:00 +29°C° 0 mm 4 mps 729 mmHg 38%
    20:00 +27°C° 0 mm 3 mps 729 mmHg 42%
    21:00 +26°C° 0 mm 2 mps 729 mmHg 44%
    22:00 +25°C° 0 mm 2 mps 730 mmHg 47%
    23:00 +24°C° 0 mm 1 mps 730 mmHg 49%

    Tomorrow, 23 August, Friday

    Time Temperature Precipitation Wind Pressure Humidity
    00:00 +23°C° 0 mm 2 mps 730 mmHg 49%
    01:00 +23°C° 0 mm 2 mps 730 mmHg 50%
    02:00 +23°C° 0 mm 2 mps 730 mmHg 50%
    03:00 +23°C° 0 mm 2 mps 730 mmHg 52%
    04:00 +21°C° 0 mm 2 mps 729 mmHg 53%
    05:00 +21°C° 0 mm 3 mps 729 mmHg 54%
    06:00 +24°C° 0 mm 3 mps 730 mmHg 51%
    07:00 +26°C° 0 mm 4 mps 730 mmHg 48%
    08:00 +27°C° 0 mm 4 mps 730 mmHg 45%
    09:00 +29°C° 0 mm 5 mps 730 mmHg 41%
    10:00 +30°C° 0 mm 6 mps 731 mmHg 37%
    11:00 +33°C° 0 mm 7 mps 731 mmHg 33%
    12:00 +34°C° 0 mm 7 mps 730 mmHg 31%
    13:00 +34°C° 0 mm 7 mps 730 mmHg 29%
    14:00 +35°C° 0 mm 7 mps 730 mmHg 27%
    15:00 +35°C° 0 mm 7 mps 729 mmHg 29%
    16:00 +34°C° 0 mm 6 mps 729 mmHg 30%
    17:00 +34°C° 0 mm 6 mps 729 mmHg 31%
    18:00 +32°C° 0 mm 5 mps 729 mmHg 35%
    19:00 +30°C° 0 mm 4 mps 729 mmHg 39%
    20:00 +28°C° 0 mm 3 mps 729 mmHg 43%
    21:00 +27°C° 0 mm 3 mps 729 mmHg 48%
    22:00 +26°C° 0 mm 3 mps 729 mmHg 53%
    23:00 +24°C° 0 mm 2 mps 729 mmHg 58%

    Day after tomorrow, 24 August, Saturday

    Time Temperature Precipitation Wind Pressure Humidity
    00:00 +24°C° 0 mm 2 mps 729 mmHg 61%
    01:00 +23°C° 0 mm 2 mps 729 mmHg 65%
    02:00 +21°C° 0 mm 2 mps 729 mmHg 68%
    03:00 +21°C° 0 mm 2 mps 729 mmHg 69%
    04:00 +21°C° 0 mm 2 mps 729 mmHg 70%
    05:00 +21°C° 0 mm 2 mps 729 mmHg 71%
    06:00 +22°C° 0 mm 3 mps 729 mmHg 64%
    07:00 +25°C° 0 mm 3 mps 729 mmHg 58%
    08:00 +27°C° 0 mm 4 mps 730 mmHg 52%
    09:00 +29°C° 0 mm 5 mps 730 mmHg 47%
    10:00 +32°C° 0 mm 5 mps 730 mmHg 42%
    11:00 +33°C° 0 mm 6 mps 730 mmHg 38%
    12:00 +34°C° 0 mm 6 mps 730 mmHg 35%
    13:00 +35°C° 0 mm 6 mps 730 mmHg 32%
    14:00 +36°C° 0 mm 6 mps 729 mmHg 30%
    15:00 +35°C° 0 mm 6 mps 729 mmHg 31%
    16:00 +35°C° 0 mm 6 mps 729 mmHg 32%
    17:00 +34°C° 0 mm 6 mps 728 mmHg 33%
    18:00 +32°C° 0 mm 5 mps 729 mmHg 38%
    19:00 +29°C° 0 mm 5 mps 729 mmHg 44%
    20:00 +27°C° 0 mm 4 mps 729 mmHg 49%
    21:00 +26°C° 0 mm 3 mps 729 mmHg 55%
    22:00 +24°C° 0 mm 3 mps 729 mmHg 61%
    23:00 +23°C° 0 mm 2 mps 729 mmHg 67%

    25 August, Sunday

    Time Temperature Precipitation Wind Pressure Humidity
    00:00 +21°C° 0 mm 2 mps 729 mmHg 69%
    01:00 +21°C° 0 mm 2 mps 728 mmHg 71%
    02:00 +21°C° 0 mm 2 mps 728 mmHg 73%
    03:00 +20°C° 0 mm 2 mps 728 mmHg 74%
    04:00 +20°C° 0 mm 2 mps 728 mmHg 75%
    05:00 +20°C° 0 mm 2 mps 728 mmHg 76%
    06:00 +21°C° 0 mm 3 mps 728 mmHg 69%
    07:00 +24°C° 0 mm 3 mps 728 mmHg 61%
    08:00 +26°C° 0 mm 3 mps 728 mmHg 53%
    09:00 +28°C° 0 mm 4 mps 729 mmHg 47%
    10:00 +30°C° 0 mm 4 mps 729 mmHg 42%
    11:00 +32°C° 0 mm 5 mps 729 mmHg 37%
    12:00 +33°C° 0 mm 5 mps 729 mmHg 33%
    13:00 +35°C° 0 mm 5 mps 728 mmHg 30%
    14:00 +36°C° 0 mm 4 mps 728 mmHg 26%
    15:00 +36°C° 0 mm 4 mps 728 mmHg 26%
    16:00 +36°C° 0 mm 4 mps 727 mmHg 26%
    17:00 +35°C° 0 mm 4 mps 727 mmHg 26%
    18:00 +33°C° 0 mm 4 mps 727 mmHg 31%
    19:00 +30°C° 0 mm 4 mps 727 mmHg 36%
    20:00 +28°C° 0 mm 3 mps 727 mmHg 41%
    21:00 +26°C° 0 mm 3 mps 727 mmHg 47%
    22:00 +25°C° 0 mm 2 mps 728 mmHg 54%
    23:00 +23°C° 0 mm 2 mps 728 mmHg 60%

    26 August, Monday

    Time Temperature Precipitation Wind Pressure Humidity
    00:00 +23°C° 0 mm 2 mps 728 mmHg 63%
    01:00 +21°C° 0 mm 2 mps 727 mmHg 65%
    02:00 +21°C° 0 mm 2 mps 727 mmHg 68%
    03:00 +20°C° 0 mm 2 mps 727 mmHg 71%
    04:00 +20°C° 0 mm 2 mps 727 mmHg 73%
    05:00 +20°C° 0 mm 2 mps 727 mmHg 76%
    06:00 +22°C° 0 mm 3 mps 728 mmHg 69%
    07:00 +24°C° 0 mm 3 mps 728 mmHg 63%
    08:00 +26°C° 0 mm 3 mps 728 mmHg 56%
    09:00 +28°C° 0 mm 4 mps 729 mmHg 50%
    10:00 +30°C° 0 mm 4 mps 729 mmHg 43%
    11:00 +33°C° 0 mm 5 mps 729 mmHg 36%
    12:00 +34°C° 0 mm 5 mps 729 mmHg 33%
    13:00 +35°C° 0 mm 5 mps 729 mmHg 30%
    14:00 +36°C° 0 mm 5 mps 728 mmHg 27%
    15:00 +35°C° 0 mm 5 mps 728 mmHg 28%
    16:00 +34°C° 0 mm 5 mps 728 mmHg 29%
    17:00 +34°C° 0 mm 5 mps 728 mmHg 30%
    18:00 +32°C° 0 mm 4 mps 728 mmHg 34%
    19:00 +29°C° 0 mm 4 mps 728 mmHg 37%
    20:00 +27°C° 0 mm 3 mps 728 mmHg 41%
    21:00 +26°C° 0 mm 3 mps 728 mmHg 46%
    22:00 +24°C° 0 mm 2 mps 728 mmHg 50%
    23:00 +23°C° 0 mm 2 mps 729 mmHg 55%

    27 August, Tuesday

    Time Temperature Precipitation Wind Pressure Humidity
    00:00 +23°C° 0 mm 2 mps 729 mmHg 58%
    01:00 +21°C° 0 mm 2 mps 728 mmHg 61%
    02:00 +20°C° 0 mm 2 mps 728 mmHg 64%
    03:00 +20°C° 0 mm 2 mps 728 mmHg 67%
    04:00 +20°C° 0 mm 2 mps 728 mmHg 70%
    05:00 +19°C° 0 mm 2 mps 728 mmHg 73%
    06:00 +21°C° 0 mm 2 mps 728 mmHg 68%
    07:00 +24°C° 0 mm 3 mps 729 mmHg 63%
    08:00 +25°C° 0 mm 3 mps 729 mmHg 58%
    09:00 +27°C° 0 mm 4 mps 729 mmHg 50%
    10:00 +29°C° 0 mm 4 mps 729 mmHg 43%
    11:00 +32°C° 0 mm 5 mps 729 mmHg 35%
    12:00 +33°C° 0 mm 5 mps 729 mmHg 32%
    13:00 +34°C° 0 mm 6 mps 729 mmHg 28%
    14:00 +35°C° 0 mm 6 mps 729 mmHg 25%
    15:00 +34°C° 0 mm 6 mps 728 mmHg 25%
    16:00 +34°C° 0 mm 6 mps 728 mmHg 26%
    17:00 +33°C° 0 mm 6 mps 728 mmHg 26%
    18:00 +30°C° 0 mm 5 mps 728 mmHg 33%
    19:00 +28°C° 0 mm 4 mps 728 mmHg 40%
    20:00 +25°C° 0 mm 3 mps 728 mmHg 47%
    21:00 +24°C° 0 mm 3 mps 728 mmHg 52%
    22:00 +23°C° 0 mm 2 mps 728 mmHg 56%
    23:00 +21°C° 0 mm 2 mps 728 mmHg 61%
    Show more